| time (UTC) | temp F | wind direction | speed MPH | gust MPH | rain 1hr in | rain 24hr in | rain mn in | humidity % | barometer mb |
| 20260905073749 | 83 | 343 | 2.0 | 4.0 | 0.00 | 0.00 | 0.00 | 45 | 1018.1 |
| 20260905073249 | 83 | 346 | 1.0 | 3.0 | 0.00 | 0.00 | 0.00 | 47 | 1018.2 |
| 20260905072749 | 82 | 333 | 2.0 | 3.0 | 0.00 | 0.00 | 0.00 | 47 | 1018.0 |
| 20260905072249 | 82 | 328 | 3.0 | 6.0 | 0.00 | 0.00 | 0.00 | 47 | 1017.9 |
| 20260905071749 | 82 | 349 | 2.0 | 5.0 | 0.00 | 0.00 | 0.00 | 47 | 1018.0 |
| 20260905071249 | 82 | 342 | 1.0 | 4.0 | 0.00 | 0.00 | 0.00 | 51 | 1018.0 |
| 20260905070749 | 81 | 348 | 0.0 | 1.0 | 0.00 | 0.00 | 0.00 | 50 | 1018.0 |
| 20260905070249 | 80 | 348 | 1.0 | 2.0 | 0.00 | 0.00 | 0.00 | 51 | 1018.0 |
| 20260905065749 | 79 | 348 | 1.0 | 3.0 | 0.00 | 0.00 | 0.00 | 51 | 1018.0 |
| 20260905065249 | 79 | 345 | 2.0 | 2.0 | 0.00 | 0.00 | 0.00 | 53 | 1018.0 |
| 20260905064749 | 78 | 303 | 3.0 | 6.0 | 0.00 | 0.00 | 0.00 | 55 | 1018.1 |
| 20260905064249 | 77 | 284 | 2.0 | 4.0 | 0.00 | 0.00 | 0.00 | 55 | 1018.0 |
| 20260905063749 | 77 | 279 | 2.0 | 4.0 | 0.00 | 0.00 | 0.00 | 55 | 1018.2 |
| 20260905063249 | 76 | 312 | 2.0 | 3.0 | 0.00 | 0.00 | 0.00 | 55 | 1018.1 |
| 20260905062749 | 76 | 314 | 1.0 | 3.0 | 0.00 | 0.00 | 0.00 | 55 | 1018.2 |
| 20260905062249 | 76 | 316 | 0.0 | 2.0 | 0.00 | 0.00 | 0.00 | 56 | 1018.2 |
| 20260905061749 | 76 | 316 | 0.0 | 0.0 | 0.00 | 0.00 | 0.00 | 56 | 1018.3 |
| 20260905061249 | 75 | 316 | 1.0 | 2.0 | 0.00 | 0.00 | 0.00 | 57 | 1018.3 |
| 20260905060749 | 75 | 316 | 1.0 | 3.0 | 0.00 | 0.00 | 0.00 | 56 | 1018.3 |
| 20260905060249 | 75 | 316 | 1.0 | 3.0 | 0.00 | 0.00 | 0.00 | 57 | 1018.3 |
| 20260905055749 | 74 | 315 | 1.0 | 3.0 | 0.00 | 0.00 | 0.00 | 56 | 1018.3 |
| 20260905055250 | 74 | 289 | 2.0 | 3.0 | 0.00 | 0.00 | 0.00 | 56 | 1018.3 |
| 20260905054753 | 74 | 284 | 2.0 | 3.0 | 0.00 | 0.00 | 0.00 | 55 | 1018.3 |
| 20260905054249 | 73 | 292 | 2.0 | 3.0 | 0.00 | 0.00 | 0.00 | 56 | 1018.3 |
| 20260905053749 | 73 | 294 | 2.0 | 3.0 | 0.00 | 0.00 | 0.00 | 57 | 1018.2 |
| 20260905053249 | 73 | 298 | 2.0 | 3.0 | 0.00 | 0.00 | 0.00 | 57 | 1018.3 |
| 20260905052749 | 73 | 346 | 1.0 | 3.0 | 0.00 | 0.00 | 0.00 | 57 | 1018.3 |
| 20260905052249 | 73 | 349 | 0.0 | 1.0 | 0.00 | 0.00 | 0.00 | 57 | 1018.3 |
| 20260905051749 | 72 | 349 | 0.0 | 0.0 | 0.00 | 0.00 | 0.00 | 57 | 1018.3 |
| 20260905051249 | 72 | 349 | 2.0 | 3.0 | 0.00 | 0.00 | 0.00 | 58 | 1018.3 |
| 20260905050749 | 72 | 349 | 2.0 | 4.0 | 0.00 | 0.00 | 0.00 | 57 | 1018.2 |
| 20260905050249 | 72 | 336 | 1.0 | 4.0 | 0.00 | 0.00 | 0.00 | 56 | 1018.3 |
| 20260905045749 | 72 | 317 | 1.0 | 2.0 | 0.00 | 0.00 | 0.00 | 57 | 1018.2 |
| 20260905045249 | 71 | 319 | 1.0 | 3.0 | 0.00 | 0.00 | 0.00 | 57 | 1018.1 |
| 20260905044749 | 71 | 334 | 1.0 | 2.0 | 0.00 | 0.00 | 0.00 | 57 | 1018.1 |
| 20260905044249 | 71 | 332 | 1.0 | 3.0 | 0.00 | 0.00 | 0.00 | 57 | 1018.0 |
| 20260905043749 | 70 | 330 | 1.0 | 2.0 | 0.00 | 0.00 | 0.00 | 58 | 1018.0 |
| 20260905043249 | 70 | 330 | 1.0 | 4.0 | 0.00 | 0.00 | 0.00 | 59 | 1018.0 |
| 20260905042749 | 70 | 5 | 1.0 | 4.0 | 0.00 | 0.00 | 0.00 | 59 | 1018.0 |
| 20260905042249 | 70 | 26 | 1.0 | 3.0 | 0.00 | 0.00 | 0.00 | 58 | 1017.9 |
| 20260905041749 | 70 | 14 | 1.0 | 3.0 | 0.00 | 0.00 | 0.00 | 58 | 1017.9 |
| 20260905041249 | 70 | 10 | 0.0 | 1.0 | 0.00 | 0.00 | 0.00 | 58 | 1017.8 |
| 20260905040749 | 70 | 10 | 1.0 | 2.0 | 0.00 | 0.00 | 0.00 | 58 | 1017.7 |
| 20260905040249 | 71 | 11 | 2.0 | 2.0 | 0.00 | 0.00 | 0.00 | 58 | 1017.7 |
| 20260905035749 | 71 | 11 | 1.0 | 3.0 | 0.00 | 0.00 | 0.00 | 57 | 1017.7 |
| 20260905035249 | 72 | 10 | 1.0 | 4.0 | 0.00 | 0.00 | 0.00 | 57 | 1017.6 |
| 20260905034749 | 72 | 335 | 2.0 | 3.0 | 0.00 | 0.00 | 0.00 | 56 | 1017.6 |
| 20260905034249 | 73 | 293 | 2.0 | 3.0 | 0.00 | 0.00 | 0.00 | 56 | 1017.6 |
| 20260905033749 | 73 | 292 | 2.0 | 4.0 | 0.00 | 0.00 | 0.00 | 56 | 1017.6 |
| 20260905033249 | 72 | 284 | 2.0 | 4.0 | 0.00 | 0.00 | 0.00 | 56 | 1017.5 |
| 20260905032750 | 72 | 288 | 2.0 | 3.0 | 0.00 | 0.00 | 0.00 | 57 | 1017.6 |
| 20260905032250 | 72 | 292 | 2.0 | 3.0 | 0.00 | 0.00 | 0.00 | 58 | 1017.5 |
| 20260905031750 | 72 | 296 | 2.0 | 3.0 | 0.00 | 0.00 | 0.00 | 56 | 1017.6 |
| 20260905031250 | 72 | 326 | 1.0 | 4.0 | 0.00 | 0.00 | 0.00 | 55 | 1017.6 |
| 20260905030749 | 72 | 19 | 1.0 | 1.0 | 0.00 | 0.00 | 0.00 | 55 | 1017.6 |
| 20260905030250 | 72 | 18 | 3.0 | 4.0 | 0.00 | 0.00 | 0.00 | 54 | 1017.6 |
| 20260905025750 | 73 | 17 | 2.0 | 5.0 | 0.00 | 0.00 | 0.00 | 54 | 1017.5 |
| 20260905025250 | 73 | 28 | 1.0 | 4.0 | 0.00 | 0.00 | 0.00 | 55 | 1017.5 |
| 20260905024750 | 73 | 327 | 0.0 | 2.0 | 0.00 | 0.00 | 0.00 | 56 | 1017.6 |
| 20260905024250 | 73 | 321 | 1.0 | 1.0 | 0.00 | 0.00 | 0.00 | 56 | 1017.6 |
| 20260905023750 | 73 | 321 | 2.0 | 3.0 | 0.00 | 0.00 | 0.00 | 56 | 1017.7 |
| 20260905023250 | 74 | 322 | 2.0 | 4.0 | 0.00 | 0.00 | 0.00 | 56 | 1017.6 |
| 20260905022750 | 75 | 301 | 2.0 | 3.0 | 0.00 | 0.00 | 0.00 | 54 | 1017.5 |
| 20260905022250 | 75 | 283 | 1.0 | 3.0 | 0.00 | 0.00 | 0.00 | 54 | 1017.5 |
| 20260905021750 | 75 | 259 | 1.0 | 1.0 | 0.00 | 0.00 | 0.00 | 54 | 1017.6 |
| 20260905021250 | 75 | 259 | 2.0 | 3.0 | 0.00 | 0.00 | 0.00 | 54 | 1017.7 |
| 20260905020750 | 74 | 245 | 3.0 | 4.0 | 0.00 | 0.00 | 0.00 | 55 | 1017.7 |
| 20260905020250 | 74 | 242 | 2.0 | 4.0 | 0.00 | 0.00 | 0.00 | 56 | 1017.7 |
| 20260905015750 | 75 | 295 | 1.0 | 3.0 | 0.00 | 0.00 | 0.00 | 56 | 1017.7 |
| 20260905015250 | 75 | 321 | 2.0 | 3.0 | 0.00 | 0.00 | 0.00 | 54 | 1017.6 |
| 20260905014750 | 75 | 296 | 3.0 | 3.0 | 0.00 | 0.00 | 0.00 | 54 | 1017.6 |
| 20260905014250 | 75 | 292 | 3.0 | 4.0 | 0.00 | 0.00 | 0.00 | 54 | 1017.6 |
| 20260905013750 | 75 | 288 | 3.0 | 6.0 | 0.00 | 0.00 | 0.00 | 54 | 1017.6 |
| 20260905013250 | 75 | 286 | 3.0 | 4.0 | 0.00 | 0.00 | 0.00 | 56 | 1017.7 |
| 20260905012750 | 74 | 298 | 3.0 | 4.0 | 0.00 | 0.00 | 0.00 | 57 | 1017.7 |
| 20260905012250 | 74 | 279 | 3.0 | 6.0 | 0.00 | 0.00 | 0.00 | 59 | 1017.7 |
| 20260905011750 | 74 | 267 | 3.0 | 4.0 | 0.00 | 0.00 | 0.00 | 60 | 1017.7 |
| 20260905011250 | 73 | 280 | 3.0 | 3.0 | 0.00 | 0.00 | 0.00 | 63 | 1017.7 |
| 20260905010750 | 74 | 281 | 3.0 | 4.0 | 0.00 | 0.00 | 0.00 | 62 | 1017.5 |
| 20260905010250 | 74 | 282 | 3.0 | 4.0 | 0.00 | 0.00 | 0.00 | 62 | 1017.6 |
| 20260905005750 | 73 | 286 | 2.0 | 3.0 | 0.00 | 0.00 | 0.00 | 63 | 1017.5 |
| 20260905005250 | 72 | 286 | 2.0 | 3.0 | 0.00 | 0.00 | 0.00 | 65 | 1017.6 |
| 20260905004750 | 72 | 301 | 2.0 | 3.0 | 0.00 | 0.00 | 0.00 | 66 | 1017.5 |
| 20260905003750 | 71 | 300 | 3.0 | 4.0 | 0.00 | 0.00 | 0.00 | 68 | 1017.5 |
| 20260905003304 | 71 | 290 | 3.0 | 6.0 | 0.00 | 0.00 | 0.00 | 71 | 1017.4 |
| 20260905002750 | 70 | 275 | 3.0 | 6.0 | 0.00 | 0.00 | 0.00 | 73 | 1017.4 |
| 20260905002250 | 70 | 272 | 3.0 | 4.0 | 0.00 | 0.00 | 0.00 | 73 | 1017.4 |
| 20260905001750 | 70 | 284 | 3.0 | 3.0 | 0.00 | 0.00 | 0.00 | 72 | 1017.3 |
| 20260905001250 | 71 | 284 | 3.0 | 4.0 | 0.00 | 0.00 | 0.00 | 71 | 1017.3 |
| 20260905000750 | 71 | 303 | 3.0 | 4.0 | 0.00 | 0.00 | 0.00 | 70 | 1017.3 |
| 20260905000250 | 71 | 311 | 4.0 | 5.0 | 0.00 | 0.00 | 0.00 | 71 | 1017.4 |
| 20260904235750 | 71 | 301 | 3.0 | 6.0 | 0.00 | 0.00 | 0.00 | 72 | 1017.4 |
| 20260904235250 | 71 | 257 | 3.0 | 4.0 | 0.00 | 0.00 | 0.00 | 71 | 1017.3 |
| 20260904234750 | 71 | 312 | 2.0 | 3.0 | 0.00 | 0.00 | 0.00 | 70 | 1017.4 |
| 20260904234250 | 71 | 313 | 2.0 | 3.0 | 0.00 | 0.00 | 0.00 | 70 | 1017.5 |
| 20260904233750 | 71 | 313 | 3.0 | 4.0 | 0.00 | 0.00 | 0.00 | 70 | 1017.3 |
| 20260904233250 | 71 | 309 | 3.0 | 4.0 | 0.00 | 0.00 | 0.00 | 73 | 1017.4 |
| 20260904232750 | 71 | 300 | 4.0 | 6.0 | 0.00 | 0.00 | 0.00 | 73 | 1017.5 |
| 20260904232250 | 72 | 285 | 2.0 | 7.0 | 0.00 | 0.00 | 0.00 | 71 | 1017.5 |
| 20260904231750 | 72 | 339 | 0.0 | 3.0 | 0.00 | 0.00 | 0.00 | 70 | 1017.5 |
| 20260904231250 | 73 | 11 | 0.0 | 0.0 | 0.00 | 0.00 | 0.00 | 70 | 1017.5 |
| 20260904230750 | 73 | 11 | 0.0 | 0.0 | 0.00 | 0.00 | 0.00 | 70 | 1017.6 |
| 20260904230250 | 72 | 11 | 0.0 | 1.0 | 0.00 | 0.00 | 0.00 | 70 | 1017.5 |
| 20260904225750 | 72 | 28 | 0.0 | 0.0 | 0.00 | 0.00 | 0.00 | 71 | 1017.5 |
| 20260904225250 | 72 | 67 | 0.0 | 0.0 | 0.00 | 0.00 | 0.00 | 70 | 1017.6 |
| 20260904224750 | 72 | 67 | 0.0 | 0.0 | 0.00 | 0.00 | 0.00 | 69 | 1017.6 |
| 20260904224250 | 72 | 67 | 0.0 | 0.0 | 0.00 | 0.00 | 0.00 | 68 | 1017.7 |
| 20260904223750 | 72 | 67 | 0.0 | 0.0 | 0.00 | 0.00 | 0.00 | 68 | 1017.7 |
| 20260904223250 | 72 | 67 | 0.0 | 0.0 | 0.00 | 0.00 | 0.00 | 67 | 1017.6 |
| 20260904222750 | 72 | 67 | 0.0 | 0.0 | 0.00 | 0.00 | 0.00 | 68 | 1017.7 |
| 20260904222250 | 73 | 67 | 0.0 | 0.0 | 0.00 | 0.00 | 0.00 | 68 | 1017.7 |
| 20260904221750 | 73 | 67 | 0.0 | 0.0 | 0.00 | 0.00 | 0.00 | 67 | 1017.7 |
| 20260904221250 | 73 | 67 | 0.0 | 0.0 | 0.00 | 0.00 | 0.00 | 67 | 1017.7 |
| 20260904220750 | 73 | 67 | 0.0 | 0.0 | 0.00 | 0.00 | 0.00 | 66 | 1017.7 |
| 20260904220250 | 74 | 67 | 0.0 | 0.0 | 0.00 | 0.00 | 0.00 | 66 | 1017.7 |
| 20260904215750 | 74 | 67 | 0.0 | 0.0 | 0.00 | 0.00 | 0.00 | 66 | 1017.7 |
| 20260904215250 | 73 | 67 | 0.0 | 0.0 | 0.00 | 0.00 | 0.00 | 67 | 1017.7 |
| 20260904214750 | 73 | 67 | 0.0 | 0.0 | 0.00 | 0.00 | 0.00 | 67 | 1017.6 |
| 20260904214250 | 74 | 77 | 0.0 | 0.0 | 0.00 | 0.00 | 0.00 | 65 | 1017.5 |
| 20260904213751 | 74 | 153 | 0.0 | 0.0 | 0.00 | 0.00 | 0.00 | 64 | 1017.6 |
| 20260904213250 | 75 | 178 | 0.0 | 0.0 | 0.00 | 0.00 | 0.00 | 64 | 1017.7 |
| 20260904212750 | 75 | 178 | 0.0 | 0.0 | 0.00 | 0.00 | 0.00 | 63 | 1017.7 |
| 20260904212250 | 75 | 187 | 0.0 | 0.0 | 0.00 | 0.00 | 0.00 | 64 | 1017.7 |
| 20260904211750 | 75 | 188 | 0.0 | 0.0 | 0.00 | 0.00 | 0.00 | 66 | 1017.6 |
| 20260904211250 | 75 | 200 | 0.0 | 0.0 | 0.00 | 0.00 | 0.00 | 66 | 1017.6 |
| 20260904210750 | 75 | 200 | 0.0 | 0.0 | 0.00 | 0.00 | 0.00 | 65 | 1017.6 |
| 20260904210250 | 75 | 275 | 0.0 | 0.0 | 0.00 | 0.00 | 0.00 | 65 | 1017.7 |
| 20260904205750 | 76 | 288 | 0.0 | 0.0 | 0.00 | 0.00 | 0.00 | 64 | 1017.6 |
| 20260904205250 | 76 | 288 | 0.0 | 0.0 | 0.00 | 0.00 | 0.00 | 64 | 1017.5 |
| 20260904204750 | 76 | 288 | 0.0 | 0.0 | 0.00 | 0.00 | 0.00 | 63 | 1017.4 |
| 20260904204250 | 77 | 288 | 0.0 | 0.0 | 0.00 | 0.00 | 0.00 | 62 | 1017.6 |
| 20260904203750 | 78 | 288 | 0.0 | 0.0 | 0.00 | 0.00 | 0.00 | 60 | 1017.6 |
| 20260904203250 | 79 | 288 | 0.0 | 0.0 | 0.00 | 0.00 | 0.00 | 59 | 1017.6 |
| 20260904202750 | 80 | 288 | 0.0 | 0.0 | 0.00 | 0.00 | 0.00 | 58 | 1017.5 |
| 20260904202250 | 80 | 288 | 0.0 | 0.0 | 0.00 | 0.00 | 0.00 | 56 | 1017.6 |
| 20260904201750 | 80 | 234 | 0.0 | 0.0 | 0.00 | 0.00 | 0.00 | 55 | 1017.7 |
| 20260904201250 | 80 | 234 | 0.0 | 0.0 | 0.00 | 0.00 | 0.00 | 55 | 1017.6 |
| 20260904200804 | 80 | 234 | 0.0 | 0.0 | 0.00 | 0.00 | 0.00 | 55 | 1017.6 |
| 20260904200250 | 80 | 234 | 0.0 | 0.0 | 0.00 | 0.00 | 0.00 | 55 | 1017.7 |
| 20260904195750 | 80 | 234 | 0.0 | 0.0 | 0.00 | 0.00 | 0.00 | 54 | 1017.6 |
| 20260904195250 | 80 | 234 | 0.0 | 2.0 | 0.00 | 0.00 | 0.00 | 54 | 1017.7 |
| 20260904194750 | 80 | 234 | 1.0 | 2.0 | 0.00 | 0.00 | 0.00 | 54 | 1017.7 |
| 20260904194250 | 80 | 234 | 2.0 | 3.0 | 0.00 | 0.00 | 0.00 | 54 | 1017.6 |
| 20260904193750 | 80 | 234 | 2.0 | 3.0 | 0.00 | 0.00 | 0.00 | 55 | 1017.6 |
| 20260904193250 | 79 | 234 | 2.0 | 4.0 | 0.00 | 0.00 | 0.00 | 56 | 1017.5 |
| 20260904192750 | 80 | 273 | 2.0 | 3.0 | 0.00 | 0.00 | 0.00 | 58 | 1017.7 |
| 20260904192250 | 81 | 273 | 1.0 | 4.0 | 0.00 | 0.00 | 0.00 | 55 | 1017.6 |
| 20260904191750 | 80 | 268 | 0.0 | 0.0 | 0.00 | 0.00 | 0.00 | 54 | 1017.6 |
| 20260904191250 | 80 | 267 | 0.0 | 0.0 | 0.00 | 0.00 | 0.00 | 54 | 1017.5 |
| 20260904190750 | 81 | 267 | 0.0 | 0.0 | 0.00 | 0.00 | 0.00 | 53 | 1017.4 |
| 20260904190250 | 81 | 267 | 0.0 | 0.0 | 0.00 | 0.00 | 0.00 | 52 | 1017.5 |
| 20260904185750 | 81 | 267 | 0.0 | 0.0 | 0.00 | 0.00 | 0.00 | 52 | 1017.5 |
| 20260904185250 | 82 | 267 | 2.0 | 3.0 | 0.00 | 0.00 | 0.00 | 52 | 1017.4 |
| 20260904184750 | 82 | 267 | 3.0 | 4.0 | 0.00 | 0.00 | 0.00 | 53 | 1017.2 |
| 20260904184250 | 82 | 257 | 3.0 | 4.0 | 0.00 | 0.00 | 0.00 | 52 | 1017.2 |
| 20260904183750 | 83 | 268 | 3.0 | 6.0 | 0.00 | 0.00 | 0.00 | 52 | 1017.1 |
| 20260904183251 | 83 | 273 | 3.0 | 6.0 | 0.00 | 0.00 | 0.00 | 51 | 1017.2 |
| 20260904182750 | 83 | 260 | 3.0 | 6.0 | 0.00 | 0.00 | 0.00 | 51 | 1017.0 |
| 20260904182250 | 83 | 305 | 1.0 | 2.0 | 0.00 | 0.00 | 0.00 | 51 | 1016.9 |
| 20260904181750 | 82 | 305 | 1.0 | 3.0 | 0.00 | 0.00 | 0.00 | 51 | 1016.8 |
| 20260904181250 | 82 | 308 | 0.0 | 2.0 | 0.00 | 0.00 | 0.00 | 52 | 1016.7 |
| 20260904180750 | 82 | 308 | 0.0 | 0.0 | 0.00 | 0.00 | 0.00 | 52 | 1016.7 |
| 20260904180251 | 82 | 308 | 1.0 | 3.0 | 0.00 | 0.00 | 0.00 | 52 | 1016.6 |
| 20260904175751 | 82 | 307 | 2.0 | 4.0 | 0.00 | 0.00 | 0.00 | 52 | 1016.4 |
| 20260904175251 | 82 | 34 | 3.0 | 5.0 | 0.00 | 0.00 | 0.00 | 52 | 1016.4 |
| 20260904174751 | 82 | 77 | 3.0 | 7.0 | 0.00 | 0.00 | 0.00 | 52 | 1016.3 |
| 20260904174251 | 83 | 55 | 1.0 | 4.0 | 0.00 | 0.00 | 0.00 | 51 | 1016.1 |
| 20260904173751 | 84 | 315 | 1.0 | 2.0 | 0.00 | 0.00 | 0.00 | 50 | 1016.0 |
| 20260904173251 | 84 | 304 | 3.0 | 4.0 | 0.00 | 0.00 | 0.00 | 49 | 1016.0 |
| 20260904172751 | 84 | 269 | 5.0 | 8.0 | 0.00 | 0.00 | 0.00 | 49 | 1015.8 |
| 20260904172251 | 85 | 261 | 7.0 | 9.0 | 0.00 | 0.00 | 0.00 | 48 | 1015.9 |
| 20260904171751 | 85 | 283 | 8.0 | 11.0 | 0.00 | 0.00 | 0.00 | 47 | 1015.7 |
| 20260904171251 | 85 | 271 | 8.0 | 13.0 | 0.00 | 0.00 | 0.00 | 47 | 1015.7 |
| 20260904170751 | 85 | 303 | 8.0 | 11.0 | 0.00 | 0.00 | 0.00 | 47 | 1015.6 |
| 20260904170251 | 85 | 259 | 8.0 | 12.0 | 0.00 | 0.00 | 0.00 | 47 | 1015.6 |
| 20260904165751 | 85 | 269 | 8.0 | 13.0 | 0.00 | 0.00 | 0.00 | 47 | 1015.7 |
| 20260904165251 | 85 | 277 | 8.0 | 12.0 | 0.00 | 0.00 | 0.00 | 47 | 1015.7 |
| 20260904164751 | 86 | 263 | 8.0 | 13.0 | 0.00 | 0.00 | 0.00 | 46 | 1015.8 |
| 20260904164251 | 86 | 264 | 7.0 | 12.0 | 0.00 | 0.00 | 0.00 | 46 | 1015.7 |
| 20260904163751 | 86 | 273 | 8.0 | 11.0 | 0.00 | 0.00 | 0.00 | 45 | 1015.7 |
| 20260904163251 | 86 | 307 | 9.0 | 11.0 | 0.00 | 0.00 | 0.00 | 45 | 1015.7 |
| 20260904162751 | 86 | 288 | 8.0 | 14.0 | 0.00 | 0.00 | 0.00 | 45 | 1015.7 |
| 20260904162251 | 86 | 286 | 9.0 | 12.0 | 0.00 | 0.00 | 0.00 | 45 | 1015.6 |
| 20260904161751 | 86 | 288 | 10.0 | 14.0 | 0.00 | 0.00 | 0.00 | 45 | 1015.6 |
| 20260904161251 | 86 | 303 | 10.0 | 14.0 | 0.00 | 0.00 | 0.00 | 46 | 1015.7 |
| 20260904160751 | 86 | 298 | 8.0 | 13.0 | 0.00 | 0.00 | 0.00 | 47 | 1015.6 |
| 20260904160251 | 86 | 302 | 8.0 | 11.0 | 0.00 | 0.00 | 0.00 | 47 | 1015.6 |
| 20260904155751 | 86 | 300 | 9.0 | 14.0 | 0.00 | 0.00 | 0.00 | 48 | 1015.5 |
| 20260904155251 | 86 | 279 | 10.0 | 15.0 | 0.00 | 0.00 | 0.00 | 48 | 1015.6 |
| 20260904154751 | 86 | 290 | 9.0 | 14.0 | 0.00 | 0.00 | 0.00 | 47 | 1015.5 |
| 20260904154251 | 87 | 288 | 9.0 | 12.0 | 0.00 | 0.00 | 0.00 | 46 | 1015.5 |
| 20260904153751 | 87 | 288 | 9.0 | 13.0 | 0.00 | 0.00 | 0.00 | 45 | 1015.5 |
| 20260904153251 | 87 | 296 | 9.0 | 13.0 | 0.00 | 0.00 | 0.00 | 45 | 1015.5 |
| 20260904152751 | 87 | 289 | 9.0 | 13.0 | 0.00 | 0.00 | 0.00 | 44 | 1015.5 |
| 20260904152251 | 87 | 278 | 9.0 | 12.0 | 0.00 | 0.00 | 0.00 | 44 | 1015.6 |
| 20260904151751 | 87 | 280 | 9.0 | 12.0 | 0.00 | 0.00 | 0.00 | 43 | 1015.5 |
| 20260904151251 | 87 | 267 | 10.0 | 13.0 | 0.00 | 0.00 | 0.00 | 43 | 1015.5 |
| 20260904150751 | 87 | 289 | 12.0 | 16.0 | 0.00 | 0.00 | 0.00 | 42 | 1015.5 |
| 20260904150251 | 88 | 290 | 12.0 | 18.0 | 0.00 | 0.00 | 0.00 | 41 | 1015.5 |
| 20260904145751 | 89 | 294 | 11.0 | 16.0 | 0.00 | 0.00 | 0.00 | 40 | 1015.5 |
| 20260904145251 | 90 | 294 | 9.0 | 18.0 | 0.00 | 0.00 | 0.00 | 38 | 1015.5 |
| 20260904144751 | 91 | 300 | 7.0 | 12.0 | 0.00 | 0.00 | 0.00 | 37 | 1015.5 |
| 20260904144251 | 91 | 291 | 6.0 | 12.0 | 0.00 | 0.00 | 0.00 | 37 | 1015.4 |
| 20260904143751 | 92 | 296 | 5.0 | 10.0 | 0.00 | 0.00 | 0.00 | 36 | 1015.5 |
| 20260904143251 | 92 | 302 | 4.0 | 8.0 | 0.00 | 0.00 | 0.00 | 32 | 1015.4 |
| 20260904142751 | 92 | 348 | 4.0 | 6.0 | 0.00 | 0.00 | 0.00 | 33 | 1015.5 |
| 20260904142251 | 92 | 344 | 5.0 | 10.0 | 0.00 | 0.00 | 0.00 | 32 | 1015.5 |
| 20260904141751 | 92 | 288 | 3.0 | 9.0 | 0.00 | 0.00 | 0.00 | 33 | 1015.5 |
| 20260904141251 | 92 | 292 | 3.0 | 6.0 | 0.00 | 0.00 | 0.00 | 32 | 1015.4 |
| 20260904140751 | 92 | 327 | 4.0 | 12.0 | 0.00 | 0.00 | 0.00 | 36 | 1015.5 |
| 20260904140251 | 92 | 319 | 4.0 | 8.0 | 0.00 | 0.00 | 0.00 | 34 | 1015.5 |
| 20260904135751 | 92 | 277 | 5.0 | 8.0 | 0.00 | 0.00 | 0.00 | 32 | 1015.6 |
| 20260904135251 | 92 | 314 | 7.0 | 13.0 | 0.00 | 0.00 | 0.00 | 32 | 1015.6 |
| 20260904134751 | 92 | 308 | 5.0 | 11.0 | 0.00 | 0.00 | 0.00 | 33 | 1015.6 |
| 20260904134251 | 92 | 12 | 4.0 | 11.0 | 0.00 | 0.00 | 0.00 | 32 | 1015.6 |
| 20260904133751 | 92 | 326 | 4.0 | 10.0 | 0.00 | 0.00 | 0.00 | 32 | 1015.7 |
| 20260904133251 | 92 | 0 | 3.0 | 6.0 | 0.00 | 0.00 | 0.00 | 34 | 1015.7 |
| 20260904132751 | 92 | 355 | 3.0 | 9.0 | 0.00 | 0.00 | 0.00 | 32 | 1015.7 |
| 20260904132251 | 92 | 232 | 4.0 | 6.0 | 0.00 | 0.00 | 0.00 | 31 | 1015.7 |
| 20260904131751 | 92 | 329 | 5.0 | 8.0 | 0.00 | 0.00 | 0.00 | 33 | 1015.7 |
| 20260904131251 | 92 | 302 | 5.0 | 9.0 | 0.00 | 0.00 | 0.00 | 31 | 1015.8 |
| 20260904130751 | 92 | 271 | 3.0 | 10.0 | 0.00 | 0.00 | 0.00 | 32 | 1015.8 |
| 20260904130251 | 91 | 313 | 5.0 | 7.0 | 0.00 | 0.00 | 0.00 | 31 | 1015.8 |
| 20260904125751 | 91 | 292 | 5.0 | 9.0 | 0.00 | 0.00 | 0.00 | 31 | 1015.9 |
| 20260904125251 | 91 | 342 | 5.0 | 9.0 | 0.00 | 0.00 | 0.00 | 32 | 1015.9 |
| 20260904124751 | 91 | 319 | 6.0 | 10.0 | 0.00 | 0.00 | 0.00 | 33 | 1016.1 |
| 20260904124251 | 91 | 345 | 6.0 | 12.0 | 0.00 | 0.00 | 0.00 | 32 | 1016.1 |
| 20260904123751 | 92 | 342 | 3.0 | 10.0 | 0.00 | 0.00 | 0.00 | 34 | 1016.3 |
| 20260904123251 | 91 | 271 | 4.0 | 5.0 | 0.00 | 0.00 | 0.00 | 33 | 1016.3 |
| 20260904122751 | 91 | 5 | 5.0 | 12.0 | 0.00 | 0.00 | 0.00 | 31 | 1016.3 |
| 20260904122251 | 91 | 94 | 4.0 | 10.0 | 0.00 | 0.00 | 0.00 | 35 | 1016.4 |
| 20260904121751 | 91 | 355 | 4.0 | 10.0 | 0.00 | 0.00 | 0.00 | 35 | 1016.4 |
| 20260904121251 | 91 | 0 | 5.0 | 9.0 | 0.00 | 0.00 | 0.00 | 36 | 1016.5 |
| 20260904120751 | 91 | 317 | 5.0 | 11.0 | 0.00 | 0.00 | 0.00 | 33 | 1016.6 |
| 20260904120251 | 91 | 9 | 5.0 | 12.0 | 0.00 | 0.00 | 0.00 | 33 | 1016.6 |
| 20260904115751 | 91 | 344 | 5.0 | 14.0 | 0.00 | 0.00 | 0.00 | 33 | 1016.7 |
| 20260904115251 | 91 | 327 | 6.0 | 15.0 | 0.00 | 0.00 | 0.00 | 35 | 1016.8 |
| 20260904114751 | 90 | 39 | 6.0 | 12.0 | 0.00 | 0.00 | 0.00 | 33 | 1016.8 |
| 20260904114251 | 90 | 54 | 6.0 | 10.0 | 0.00 | 0.00 | 0.00 | 33 | 1016.8 |
| 20260904113751 | 90 | 14 | 8.0 | 11.0 | 0.00 | 0.00 | 0.00 | 34 | 1017.0 |
| 20260904113251 | 90 | 0 | 9.0 | 16.0 | 0.00 | 0.00 | 0.00 | 33 | 1017.1 |
| 20260904112751 | 90 | 65 | 7.0 | 16.0 | 0.00 | 0.00 | 0.00 | 35 | 1017.1 |
| 20260904112251 | 90 | 34 | 8.0 | 16.0 | 0.00 | 0.00 | 0.00 | 34 | 1017.1 |
| 20260904111751 | 90 | 45 | 7.0 | 15.0 | 0.00 | 0.00 | 0.00 | 34 | 1017.2 |
| 20260904111251 | 90 | 5 | 8.0 | 12.0 | 0.00 | 0.00 | 0.00 | 33 | 1017.1 |
| 20260904110751 | 90 | 39 | 8.0 | 16.0 | 0.00 | 0.00 | 0.00 | 33 | 1017.1 |
| 20260904110251 | 90 | 11 | 9.0 | 16.0 | 0.00 | 0.00 | 0.00 | 34 | 1017.3 |
| 20260904105751 | 90 | 69 | 10.0 | 19.0 | 0.00 | 0.00 | 0.00 | 32 | 1017.2 |
| 20260904105251 | 90 | 40 | 9.0 | 16.0 | 0.00 | 0.00 | 0.00 | 32 | 1017.1 |
| 20260904104751 | 90 | 44 | 8.0 | 14.0 | 0.00 | 0.00 | 0.00 | 31 | 1017.1 |
| 20260904104251 | 90 | 100 | 7.0 | 11.0 | 0.00 | 0.00 | 0.00 | 32 | 1017.2 |
| 20260904103751 | 90 | 94 | 8.0 | 13.0 | 0.00 | 0.00 | 0.00 | 36 | 1017.2 |
| 20260904103251 | 89 | 84 | 10.0 | 18.0 | 0.00 | 0.00 | 0.00 | 32 | 1017.2 |
| 20260904102751 | 89 | 94 | 10.0 | 17.0 | 0.00 | 0.00 | 0.00 | 33 | 1017.3 |
| 20260904102251 | 89 | 90 | 12.0 | 17.0 | 0.00 | 0.00 | 0.00 | 32 | 1017.3 |
| 20260904101751 | 89 | 90 | 11.0 | 20.0 | 0.00 | 0.00 | 0.00 | 33 | 1017.3 |
| 20260904101251 | 89 | 97 | 11.0 | 21.0 | 0.00 | 0.00 | 0.00 | 32 | 1017.4 |
| 20260904100751 | 89 | 64 | 12.0 | 17.0 | 0.00 | 0.00 | 0.00 | 33 | 1017.5 |
| 20260904100251 | 89 | 67 | 11.0 | 19.0 | 0.00 | 0.00 | 0.00 | 32 | 1017.5 |
| 20260904095751 | 89 | 79 | 10.0 | 17.0 | 0.00 | 0.00 | 0.00 | 34 | 1017.4 |
| 20260904095251 | 89 | 80 | 11.0 | 16.0 | 0.00 | 0.00 | 0.00 | 33 | 1017.4 |
| 20260904094751 | 89 | 84 | 11.0 | 19.0 | 0.00 | 0.00 | 0.00 | 32 | 1017.5 |
| 20260904094251 | 89 | 80 | 10.0 | 13.0 | 0.00 | 0.00 | 0.00 | 32 | 1017.4 |
| 20260904093751 | 89 | 84 | 11.0 | 21.0 | 0.00 | 0.00 | 0.00 | 33 | 1017.5 |
| 20260904093251 | 89 | 85 | 11.0 | 17.0 | 0.00 | 0.00 | 0.00 | 34 | 1017.6 |
| 20260904092751 | 88 | 74 | 10.0 | 19.0 | 0.00 | 0.00 | 0.00 | 34 | 1017.5 |
| 20260904092251 | 89 | 58 | 9.0 | 19.0 | 0.00 | 0.00 | 0.00 | 33 | 1017.6 |
| 20260904091751 | 89 | 78 | 8.0 | 14.0 | 0.00 | 0.00 | 0.00 | 36 | 1017.6 |
| 20260904091251 | 88 | 52 | 9.0 | 15.0 | 0.00 | 0.00 | 0.00 | 34 | 1017.7 |
| 20260904090751 | 88 | 76 | 8.0 | 16.0 | 0.00 | 0.00 | 0.00 | 33 | 1017.7 |
| 20260904090252 | 88 | 71 | 9.0 | 13.0 | 0.00 | 0.00 | 0.00 | 36 | 1017.7 |
| 20260904085751 | 88 | 69 | 12.0 | 20.0 | 0.00 | 0.00 | 0.00 | 34 | 1017.8 |
| 20260904085252 | 88 | 65 | 11.0 | 19.0 | 0.00 | 0.00 | 0.00 | 34 | 1017.8 |
| 20260904084752 | 88 | 66 | 11.0 | 17.0 | 0.00 | 0.00 | 0.00 | 35 | 1017.8 |
| 20260904084252 | 88 | 42 | 10.0 | 17.0 | 0.00 | 0.00 | 0.00 | 34 | 1017.8 |
| 20260904083752 | 87 | 53 | 12.0 | 15.0 | 0.00 | 0.00 | 0.00 | 33 | 1017.9 |
| 20260904083252 | 87 | 71 | 13.0 | 20.0 | 0.00 | 0.00 | 0.00 | 35 | 1018.0 |
| 20260904082752 | 87 | 75 | 12.0 | 20.0 | 0.00 | 0.00 | 0.00 | 34 | 1018.0 |
| 20260904082252 | 87 | 80 | 11.0 | 19.0 | 0.00 | 0.00 | 0.00 | 35 | 1018.0 |
| 20260904081752 | 87 | 64 | 13.0 | 19.0 | 0.00 | 0.00 | 0.00 | 35 | 1017.9 |
| 20260904081252 | 87 | 38 | 13.0 | 18.0 | 0.00 | 0.00 | 0.00 | 35 | 1017.9 |
| 20260904080752 | 87 | 62 | 11.0 | 19.0 | 0.00 | 0.00 | 0.00 | 35 | 1017.9 |
| 20260904080252 | 87 | 50 | 11.0 | 16.0 | 0.00 | 0.00 | 0.00 | 35 | 1017.8 |
| 20260904075806 | 87 | 63 | 12.0 | 21.0 | 0.00 | 0.00 | 0.00 | 35 | 1017.8 |
| 20260904075252 | 87 | 76 | 8.0 | 22.0 | 0.00 | 0.00 | 0.00 | 34 | 1017.7 |
| 20260904074752 | 87 | 59 | 6.0 | 11.0 | 0.00 | 0.00 | 0.00 | 36 | 1017.7 |
| 20260904074252 | 86 | 41 | 8.0 | 11.0 | 0.00 | 0.00 | 0.00 | 36 | 1017.6 |